Time,TemperatureF,DewpointF,PressureIn,WindDirection,WindDirectionDegrees,WindSpeedMPH,WindSpeedGustMPH,Humidity,HourlyPrecipIn,Conditions,Clouds,dailyrainin,SoftwareType,DateUTC
2013-08-22 00:00:00,79.9,79.9,30.16,West,268,5.0,5.0,100,0.00,,---,0.00,VWS V14.00,2013-08-22 04:00:00,
2013-08-22 00:01:00,79.8,79.8,30.16,West,267,3.0,5.0,100,0.00,,---,0.00,VWS V14.00,2013-08-22 04:01:00,
2013-08-22 00:06:00,79.6,79.6,30.16,West,266,3.0,6.0,100,0.00,,---,0.00,VWS V14.00,2013-08-22 04:06:00,
2013-08-22 00:11:00,79.4,79.4,30.16,WSW,254,4.0,6.0,100,0.00,,---,0.00,VWS V14.00,2013-08-22 04:11:00,
2013-08-22 00:16:00,79.2,79.2,30.15,WSW,251,0.0,6.0,100,0.00,,---,0.00,VWS V14.00,2013-08-22 04:16:00,
2013-08-22 00:21:00,79.1,79.1,30.15,WSW,251,0.0,6.0,100,0.00,,---,0.00,VWS V14.00,2013-08-22 04:21:00,
2013-08-22 00:26:00,79.0,79.0,30.15,WSW,251,0.0,6.0,100,0.00,,---,0.00,VWS V14.00,2013-08-22 04:26:00,
2013-08-22 00:30:00,78.9,78.9,30.15,WSW,238,0.0,6.0,100,0.00,,---,0.00,VWS V14.00,2013-08-22 04:30:00,
2013-08-22 00:31:00,78.9,78.9,30.15,WSW,238,0.0,0.0,100,0.00,,---,0.00,VWS V14.00,2013-08-22 04:31:00,
2013-08-22 00:36:00,78.7,78.7,30.15,WSW,238,0.0,0.0,100,0.00,,---,0.00,VWS V14.00,2013-08-22 04:36:00,
2013-08-22 00:41:00,78.7,78.7,30.16,WSW,240,4.0,4.0,100,0.00,,---,0.00,VWS V14.00,2013-08-22 04:41:00,
2013-08-22 00:46:00,78.6,78.6,30.15,WSW,243,0.0,5.0,100,0.00,,---,0.00,VWS V14.00,2013-08-22 04:46:00,
2013-08-22 00:51:00,78.5,78.5,30.15,WSW,243,2.0,5.0,100,0.00,,---,0.00,VWS V14.00,2013-08-22 04:51:00,
2013-08-22 00:56:00,78.4,78.4,30.15,SW,233,2.0,5.0,100,0.00,,---,0.00,VWS V14.00,2013-08-22 04:56:00,
2013-08-22 01:00:00,78.3,78.3,30.15,SW,222,3.0,5.0,100,0.00,,---,0.00,VWS V14.00,2013-08-22 05:00:00,
2013-08-22 01:01:00,78.3,78.3,30.15,SW,223,4.0,5.0,100,0.00,,---,0.00,VWS V14.00,2013-08-22 05:01:00,
2013-08-22 01:06:00,78.2,78.2,30.15,SW,222,0.0,5.0,100,0.00,,---,0.00,VWS V14.00,2013-08-22 05:06:00,
2013-08-22 01:11:00,78.2,78.2,30.15,SW,222,0.0,5.0,100,0.00,,---,0.00,VWS V14.00,2013-08-22 05:11:00,
2013-08-22 01:16:00,78.1,78.1,30.15,SW,222,0.0,5.0,100,0.00,,---,0.00,VWS V14.00,2013-08-22 05:16:00,
2013-08-22 01:21:00,78.1,78.1,30.15,SW,222,0.0,5.0,100,0.00,,---,0.00,VWS V14.00,2013-08-22 05:21:00,
2013-08-22 01:26:00,78.0,78.0,30.15,SW,222,0.0,5.0,100,0.00,,---,0.00,VWS V14.00,2013-08-22 05:26:00,
2013-08-22 01:30:00,78.0,78.0,30.15,SW,222,0.0,5.0,100,0.00,,---,0.00,VWS V14.00,2013-08-22 05:30:00,
2013-08-22 01:31:00,78.0,78.0,30.15,SW,227,3.0,5.0,100,0.00,,---,0.00,VWS V14.00,2013-08-22 05:31:00,
2013-08-22 01:36:00,78.0,78.0,30.15,SW,228,3.0,5.0,100,0.00,,---,0.00,VWS V14.00,2013-08-22 05:36:00,
2013-08-22 01:41:00,78.0,78.0,30.15,WSW,239,4.0,5.0,100,0.00,,---,0.00,VWS V14.00,2013-08-22 05:41:00,
2013-08-22 01:46:00,78.0,78.0,30.16,WSW,248,5.0,6.0,100,0.00,,---,0.00,VWS V14.00,2013-08-22 05:46:00,
2013-08-22 01:51:00,78.1,78.1,30.15,WSW,256,5.0,6.0,100,0.00,,---,0.00,VWS V14.00,2013-08-22 05:51:00,
2013-08-22 01:56:00,78.1,78.1,30.16,WSW,258,0.0,6.0,100,0.00,,---,0.00,VWS V14.00,2013-08-22 05:56:00,
2013-08-22 02:00:00,78.1,78.1,30.15,WSW,258,0.0,6.0,100,0.00,,---,0.00,VWS V14.00,2013-08-22 06:00:00,
2013-08-22 02:01:00,78.1,78.1,30.16,WSW,258,0.0,0.0,100,0.00,,---,0.00,VWS V14.00,2013-08-22 06:01:00,
2013-08-22 02:06:00,78.1,78.1,30.15,WSW,258,2.0,5.0,100,0.00,,---,0.00,VWS V14.00,2013-08-22 06:06:00,
2013-08-22 02:11:00,78.1,78.1,30.15,WSW,257,0.0,5.0,100,0.00,,---,0.00,VWS V14.00,2013-08-22 06:11:00,
2013-08-22 02:16:00,78.1,78.1,30.16,WSW,258,0.0,5.0,100,0.00,,---,0.00,VWS V14.00,2013-08-22 06:16:00,
2013-08-22 02:21:00,78.1,78.1,30.16,West,259,6.0,6.0,100,0.00,,---,0.00,VWS V14.00,2013-08-22 06:21:00,
2013-08-22 02:26:00,78.2,78.2,30.16,West,275,3.0,6.0,100,0.00,,---,0.00,VWS V14.00,2013-08-22 06:26:00,
2013-08-22 02:30:00,78.2,78.2,30.16,West,275,3.0,6.0,100,0.00,,---,0.00,VWS V14.00,2013-08-22 06:30:00,
2013-08-22 02:31:00,78.2,78.2,30.16,West,275,2.0,3.0,100,0.00,,---,0.00,VWS V14.00,2013-08-22 06:31:00,
2013-08-22 02:36:00,78.3,78.3,30.16,West,274,4.0,6.0,100,0.00,,---,0.00,VWS V14.00,2013-08-22 06:36:00,
2013-08-22 02:41:00,78.3,78.3,30.16,North,353,0.0,8.0,100,0.00,,---,0.00,VWS V14.00,2013-08-22 06:41:00,
2013-08-22 02:46:00,78.1,78.1,30.16,North,0,1.0,8.0,100,0.00,,---,0.00,VWS V14.00,2013-08-22 06:46:00,
2013-08-22 02:51:00,77.9,77.9,30.16,North,1,3.0,8.0,100,0.00,,---,0.00,VWS V14.00,2013-08-22 06:51:00,
2013-08-22 02:56:00,77.7,77.7,30.16,North,0,1.0,8.0,100,0.00,,---,0.00,VWS V14.00,2013-08-22 06:56:00,
2013-08-22 03:00:00,77.5,77.5,30.16,North,358,0.0,8.0,100,0.00,,---,0.00,VWS V14.00,2013-08-22 07:00:00,
2013-08-22 03:01:00,77.4,77.4,30.16,North,0,0.0,2.0,100,0.00,,---,0.00,VWS V14.00,2013-08-22 07:01:00,
2013-08-22 03:06:00,77.2,77.2,30.16,North,0,1.0,4.0,100,0.00,,---,0.00,VWS V14.00,2013-08-22 07:06:00,
2013-08-22 03:11:00,77.1,77.1,30.16,North,3,0.0,4.0,100,0.00,,---,0.00,VWS V14.00,2013-08-22 07:11:00,
2013-08-22 03:16:00,76.9,76.9,30.16,North,1,0.0,4.0,100,0.00,,---,0.00,VWS V14.00,2013-08-22 07:16:00,
2013-08-22 03:21:00,76.8,76.8,30.16,North,1,0.0,4.0,100,0.00,,---,0.00,VWS V14.00,2013-08-22 07:21:00,
2013-08-22 03:26:00,76.7,76.7,30.16,North,1,0.0,4.0,100,0.00,,---,0.00,VWS V14.00,2013-08-22 07:26:00,
2013-08-22 03:30:00,76.6,76.6,30.15,North,1,0.0,4.0,100,0.00,,---,0.00,VWS V14.00,2013-08-22 07:30:00,
2013-08-22 03:31:00,76.6,76.6,30.16,North,1,0.0,0.0,100,0.00,,---,0.00,VWS V14.00,2013-08-22 07:31:00,
2013-08-22 03:36:00,76.6,76.6,30.16,North,1,0.0,0.0,100,0.00,,---,0.00,VWS V14.00,2013-08-22 07:36:00,
2013-08-22 03:41:00,76.5,76.5,30.16,North,354,2.0,4.0,100,0.00,,---,0.00,VWS V14.00,2013-08-22 07:41:00,
2013-08-22 03:46:00,76.4,76.4,30.15,North,358,2.0,5.0,100,0.00,,---,0.00,VWS V14.00,2013-08-22 07:46:00,
2013-08-22 03:51:00,76.3,76.3,30.16,North,0,1.0,5.0,100,0.00,,---,0.00,VWS V14.00,2013-08-22 07:51:00,
2013-08-22 03:56:00,76.2,76.2,30.16,North,0,0.0,5.0,100,0.00,,---,0.00,VWS V14.00,2013-08-22 07:56:00,
2013-08-22 04:00:00,76.1,76.1,30.16,North,0,2.0,5.0,100,0.00,,---,0.00,VWS V14.00,2013-08-22 08:00:00,
2013-08-22 04:01:00,76.1,76.1,30.16,North,0,1.0,3.0,100,0.00,,---,0.00,VWS V14.00,2013-08-22 08:01:00,
2013-08-22 04:06:00,76.0,76.0,30.15,North,0,3.0,4.0,100,0.00,,---,0.00,VWS V14.00,2013-08-22 08:06:00,
2013-08-22 04:11:00,75.9,75.9,30.15,North,0,0.0,4.0,100,0.00,,---,0.00,VWS V14.00,2013-08-22 08:11:00,
2013-08-22 04:16:00,75.8,75.8,30.15,North,0,0.0,4.0,100,0.00,,---,0.00,VWS V14.00,2013-08-22 08:16:00,
2013-08-22 04:21:00,75.8,75.8,30.15,North,0,3.0,4.0,100,0.00,,---,0.00,VWS V14.00,2013-08-22 08:21:00,
2013-08-22 04:26:00,75.8,75.8,30.15,North,350,4.0,5.0,100,0.00,,---,0.00,VWS V14.00,2013-08-22 08:26:00,
2013-08-22 04:30:00,75.7,75.7,30.15,NNW,346,4.0,5.0,100,0.00,,---,0.00,VWS V14.00,2013-08-22 08:30:00,
2013-08-22 04:31:00,75.7,75.7,30.15,NNW,346,4.0,4.0,100,0.00,,---,0.00,VWS V14.00,2013-08-22 08:31:00,
2013-08-22 04:36:00,75.7,75.7,30.15,NNW,346,0.0,4.0,100,0.00,,---,0.00,VWS V14.00,2013-08-22 08:36:00,
2013-08-22 04:41:00,75.6,75.6,30.15,NNW,347,0.0,4.0,100,0.00,,---,0.00,VWS V14.00,2013-08-22 08:41:00,
2013-08-22 04:46:00,75.5,75.5,30.15,NNW,346,1.0,4.0,100,0.00,,---,0.00,VWS V14.00,2013-08-22 08:46:00,
2013-08-22 04:51:00,75.5,75.5,30.15,NNW,346,0.0,4.0,100,0.00,,---,0.00,VWS V14.00,2013-08-22 08:51:00,
2013-08-22 04:56:00,75.5,75.5,30.15,NNW,346,0.0,4.0,100,0.00,,---,0.00,VWS V14.00,2013-08-22 08:56:00,
2013-08-22 05:00:00,75.5,75.5,30.15,NNW,346,2.0,4.0,100,0.00,,---,0.00,VWS V14.00,2013-08-22 09:00:00,
2013-08-22 05:01:00,75.4,75.4,30.15,NNW,346,2.0,4.0,100,0.00,,---,0.00,VWS V14.00,2013-08-22 09:01:00,
2013-08-22 05:06:00,75.4,75.4,30.15,NNW,347,2.0,4.0,100,0.00,,---,0.00,VWS V14.00,2013-08-22 09:06:00,
2013-08-22 05:11:00,75.5,75.5,30.15,NNW,346,3.0,4.0,100,0.00,,---,0.00,VWS V14.00,2013-08-22 09:11:00,
2013-08-22 05:16:00,75.5,75.5,30.15,NNW,347,3.0,4.0,100,0.00,,---,0.00,VWS V14.00,2013-08-22 09:16:00,
2013-08-22 05:20:00,75.5,75.5,30.15,NNW,346,3.0,4.0,100,0.00,,---,0.00,VWS V14.00,2013-08-22 09:20:00,
2013-08-22 05:25:00,75.5,75.5,30.15,NNW,346,0.0,4.0,100,0.00,,---,0.00,VWS V14.00,2013-08-22 09:25:00,
2013-08-22 05:30:00,75.4,75.4,30.14,NNW,346,0.0,4.0,100,0.00,,---,0.00,VWS V14.00,2013-08-22 09:30:00,
2013-08-22 05:31:00,75.4,75.4,30.14,NNW,347,0.0,0.0,100,0.00,,---,0.00,VWS V14.00,2013-08-22 09:31:00,
2013-08-22 05:35:00,75.4,75.4,30.15,NNW,346,3.0,4.0,100,0.00,,---,0.00,VWS V14.00,2013-08-22 09:35:00,
2013-08-22 05:40:00,75.4,75.4,30.15,NNW,338,4.0,5.0,100,0.00,,---,0.00,VWS V14.00,2013-08-22 09:40:00,
2013-08-22 05:45:00,75.4,75.4,30.15,NNW,338,5.0,6.0,100,0.00,,---,0.00,VWS V14.00,2013-08-22 09:45:00,
2013-08-22 05:50:00,75.4,75.4,30.14,NNW,335,4.0,6.0,100,0.00,,---,0.00,VWS V14.00,2013-08-22 09:50:00,
2013-08-22 05:55:00,75.4,75.4,30.15,NNW,335,4.0,6.0,100,0.00,,---,0.00,VWS V14.00,2013-08-22 09:55:00,
2013-08-22 06:00:00,75.3,75.3,30.14,NNW,335,0.0,3.0,100,0.00,,---,0.00,VWS V14.00,2013-08-22 10:00:00,
2013-08-22 06:06:00,75.3,75.3,30.14,NNW,334,4.0,4.0,100,0.00,,---,0.00,VWS V14.00,2013-08-22 10:06:00,
2013-08-22 06:11:00,75.3,75.3,30.14,NNW,335,2.0,5.0,100,0.00,,---,0.00,VWS V14.00,2013-08-22 10:11:00,
2013-08-22 06:16:00,75.3,75.3,30.15,NNW,336,3.0,5.0,100,0.00,,---,0.00,VWS V14.00,2013-08-22 10:16:00,
2013-08-22 06:21:00,75.2,75.2,30.14,NNW,336,1.0,5.0,100,0.00,,---,0.00,VWS V14.00,2013-08-22 10:21:00,
2013-08-22 06:26:00,75.1,75.1,30.15,NNW,336,0.0,5.0,100,0.00,,---,0.00,VWS V14.00,2013-08-22 10:26:00,
2013-08-22 06:30:00,75.1,75.1,30.15,NNW,336,0.0,5.0,100,0.00,,---,0.00,VWS V14.00,2013-08-22 10:30:00,
2013-08-22 06:31:00,75.0,75.0,30.15,NNW,336,0.0,2.0,100,0.00,,---,0.00,VWS V14.00,2013-08-22 10:31:00,
2013-08-22 06:36:00,75.0,75.0,30.15,NNW,336,0.0,2.0,100,0.00,,---,0.00,VWS V14.00,2013-08-22 10:36:00,
2013-08-22 06:41:00,75.0,75.0,30.15,NNW,336,0.0,2.0,100,0.00,,---,0.00,VWS V14.00,2013-08-22 10:41:00,
2013-08-22 06:46:00,74.9,74.9,30.15,NNW,336,0.0,2.0,100,0.00,,---,0.00,VWS V14.00,2013-08-22 10:46:00,
2013-08-22 07:00:00,75.1,75.1,30.16,NNW,339,4.0,5.0,100,0.00,,---,0.00,VWS V14.00,2013-08-22 11:00:00,
2013-08-22 07:30:00,75.2,75.2,30.16,NNW,342,0.0,6.0,100,0.00,,---,0.00,VWS V14.00,2013-08-22 11:30:00,
2013-08-22 08:00:00,75.3,75.3,30.16,NNW,342,0.0,0.0,100,0.00,,---,0.00,VWS V14.00,2013-08-22 12:00:00,
2013-08-22 08:27:00,75.9,75.9,30.17,NW,324,5.0,7.0,100,0.00,,---,0.00,VWS V14.00,2013-08-22 12:27:00,
2013-08-22 08:30:00,76.0,76.0,30.17,NW,317,4.0,7.0,100,0.00,,---,0.00,VWS V14.00,2013-08-22 12:30:00,
2013-08-22 08:32:00,76.0,76.0,30.16,WNW,303,4.0,6.0,100,0.00,,---,0.00,VWS V14.00,2013-08-22 12:32:00,
2013-08-22 08:37:00,76.1,76.1,30.16,WNW,298,5.0,9.0,100,0.00,,---,0.00,VWS V14.00,2013-08-22 12:37:00,
2013-08-22 08:42:00,76.3,76.3,30.16,WNW,285,3.0,9.0,100,0.00,,---,0.00,VWS V14.00,2013-08-22 12:42:00,
2013-08-22 08:47:00,76.5,76.5,30.16,West,274,4.0,9.0,100,0.00,,---,0.00,VWS V14.00,2013-08-22 12:47:00,
2013-08-22 08:52:00,76.7,76.7,30.17,West,259,6.0,9.0,100,0.00,,---,0.00,VWS V14.00,2013-08-22 12:52:00,
2013-08-22 08:57:00,76.9,76.9,30.17,West,279,7.0,9.0,100,0.00,,---,0.00,VWS V14.00,2013-08-22 12:57:00,
2013-08-22 09:00:00,77.0,77.0,30.17,WNW,289,5.0,8.0,100,0.00,,---,0.00,VWS V14.00,2013-08-22 13:00:00,
2013-08-22 09:05:00,77.1,77.1,30.17,WNW,289,8.0,8.0,100,0.00,,---,0.00,VWS V14.00,2013-08-22 13:05:00,
2013-08-22 09:10:00,77.2,77.2,30.16,WNW,290,6.0,8.0,100,0.00,,---,0.00,VWS V14.00,2013-08-22 13:10:00,
2013-08-22 09:15:00,77.2,77.2,30.16,WNW,288,4.0,8.0,100,0.00,,---,0.00,VWS V14.00,2013-08-22 13:15:00,
2013-08-22 09:20:00,77.4,77.4,30.17,WNW,291,7.0,9.0,100,0.00,,---,0.00,VWS V14.00,2013-08-22 13:20:00,
2013-08-22 09:25:00,77.5,77.5,30.17,WNW,299,6.0,9.0,100,0.00,,---,0.00,VWS V14.00,2013-08-22 13:25:00,
2013-08-22 09:30:00,77.7,77.7,30.16,WNW,294,7.0,9.0,100,0.00,,---,0.00,VWS V14.00,2013-08-22 13:30:00,
2013-08-22 09:35:00,77.8,77.8,30.17,WNW,296,8.0,10.0,100,0.00,,---,0.00,VWS V14.00,2013-08-22 13:35:00,
2013-08-22 09:40:00,77.9,77.9,30.17,WNW,302,8.0,10.0,100,0.00,,---,0.00,VWS V14.00,2013-08-22 13:40:00,
2013-08-22 09:45:00,78.0,78.0,30.17,WNW,298,9.0,11.0,100,0.00,,---,0.00,VWS V14.00,2013-08-22 13:45:00,
2013-08-22 09:50:00,78.2,78.2,30.16,WNW,297,7.0,12.0,100,0.00,,---,0.00,VWS V14.00,2013-08-22 13:50:00,
2013-08-22 09:55:00,78.4,78.4,30.17,WNW,296,7.0,12.0,100,0.00,,---,0.00,VWS V14.00,2013-08-22 13:55:00,
2013-08-22 10:00:00,78.5,78.5,30.17,West,272,5.0,8.0,100,0.00,,---,0.00,VWS V14.00,2013-08-22 14:00:00,
2013-08-22 10:05:00,78.7,78.7,30.17,West,269,5.0,10.0,100,0.00,,---,0.00,VWS V14.00,2013-08-22 14:05:00,
2013-08-22 10:10:00,78.9,78.9,30.17,West,277,6.0,12.0,100,0.00,,---,0.00,VWS V14.00,2013-08-22 14:10:00,
2013-08-22 10:15:00,79.1,79.1,30.17,West,280,7.0,12.0,100,0.00,,---,0.00,VWS V14.00,2013-08-22 14:15:00,
2013-08-22 10:20:00,79.3,79.3,30.17,WNW,283,8.0,12.0,100,0.00,,---,0.00,VWS V14.00,2013-08-22 14:20:00,
2013-08-22 10:25:00,79.6,79.6,30.16,West,265,6.0,12.0,100,0.00,,---,0.00,VWS V14.00,2013-08-22 14:25:00,
2013-08-22 10:30:00,79.8,79.8,30.17,West,281,8.0,10.0,100,0.00,,---,0.00,VWS V14.00,2013-08-22 14:30:00,
2013-08-22 10:35:00,80.1,80.1,30.17,WNW,284,7.0,11.0,100,0.00,,---,0.00,VWS V14.00,2013-08-22 14:35:00,
2013-08-22 10:40:00,80.3,80.3,30.17,West,259,7.0,11.0,100,0.00,,---,0.00,VWS V14.00,2013-08-22 14:40:00,
2013-08-22 10:45:00,80.5,80.5,30.17,West,269,7.0,11.0,100,0.00,,---,0.00,VWS V14.00,2013-08-22 14:45:00,
2013-08-22 10:50:00,80.7,80.7,30.17,WNW,287,5.0,11.0,100,0.00,,---,0.00,VWS V14.00,2013-08-22 14:50:00,
2013-08-22 10:55:00,80.8,80.8,30.17,WSW,239,10.0,11.0,100,0.00,,---,0.00,VWS V14.00,2013-08-22 14:55:00,
2013-08-22 11:00:00,80.9,80.9,30.16,SW,233,8.0,9.0,100,0.00,,---,0.00,VWS V14.00,2013-08-22 15:00:00,
2013-08-22 11:05:00,80.9,80.9,30.16,WSW,241,7.0,10.0,100,0.00,,---,0.00,VWS V14.00,2013-08-22 15:05:00,
2013-08-22 11:10:00,81.0,81.0,30.16,SW,235,6.0,10.0,100,0.00,,---,0.00,VWS V14.00,2013-08-22 15:10:00,
2013-08-22 11:15:00,81.2,81.2,30.16,West,270,5.0,10.0,100,0.00,,---,0.00,VWS V14.00,2013-08-22 15:15:00,
2013-08-22 11:20:00,81.4,81.4,30.16,WSW,248,7.0,10.0,100,0.00,,---,0.00,VWS V14.00,2013-08-22 15:20:00,
2013-08-22 11:25:00,81.5,81.5,30.16,SW,226,7.0,10.0,100,0.00,,---,0.00,VWS V14.00,2013-08-22 15:25:00,
2013-08-22 11:30:00,81.6,81.6,30.16,SW,230,7.0,8.0,100,0.00,,---,0.00,VWS V14.00,2013-08-22 15:30:00,
2013-08-22 11:35:00,81.6,81.6,30.16,WSW,241,7.0,10.0,100,0.00,,---,0.00,VWS V14.00,2013-08-22 15:35:00,
2013-08-22 11:40:00,81.7,81.4,30.15,WSW,241,8.0,10.0,99,0.00,,---,0.00,VWS V14.00,2013-08-22 15:40:00,
2013-08-22 11:45:00,81.8,81.8,30.15,SW,219,9.0,11.0,100,0.00,,---,0.00,VWS V14.00,2013-08-22 15:45:00,
2013-08-22 11:50:00,81.9,81.6,30.15,WSW,251,6.0,11.0,99,0.00,,---,0.00,VWS V14.00,2013-08-22 15:50:00,
2013-08-22 11:55:00,81.8,81.2,30.15,WSW,240,7.0,11.0,98,0.00,,---,0.00,VWS V14.00,2013-08-22 15:55:00,
2013-08-22 12:00:00,81.9,81.6,30.15,WSW,241,4.0,7.0,99,0.00,,---,0.00,VWS V14.00,2013-08-22 16:00:00,
2013-08-22 12:05:00,82.2,81.9,30.15,WSW,252,4.0,11.0,99,0.00,,---,0.00,VWS V14.00,2013-08-22 16:05:00,
2013-08-22 12:10:00,82.4,81.8,30.14,SW,235,6.0,11.0,98,0.00,,---,0.00,VWS V14.00,2013-08-22 16:10:00,
2013-08-22 12:15:00,82.6,82.3,30.14,WSW,252,9.0,12.0,99,0.00,,---,0.00,VWS V14.00,2013-08-22 16:15:00,
2013-08-22 12:20:00,82.7,81.8,30.14,WSW,251,6.0,12.0,97,0.00,,---,0.00,VWS V14.00,2013-08-22 16:20:00,
2013-08-22 12:25:00,82.5,81.6,30.14,SW,222,7.0,12.0,97,0.00,,---,0.00,VWS V14.00,2013-08-22 16:25:00,
2013-08-22 12:30:00,82.6,82.0,30.14,WSW,257,7.0,9.0,98,0.00,,---,0.00,VWS V14.00,2013-08-22 16:30:00,
2013-08-22 12:35:00,82.6,82.0,30.14,WSW,246,8.0,12.0,98,0.00,,---,0.00,VWS V14.00,2013-08-22 16:35:00,
2013-08-22 12:40:00,82.8,81.9,30.14,WSW,245,5.0,13.0,97,0.00,,---,0.00,VWS V14.00,2013-08-22 16:40:00,
2013-08-22 12:45:00,82.8,81.9,30.14,WSW,241,9.0,13.0,97,0.00,,---,0.00,VWS V14.00,2013-08-22 16:45:00,
2013-08-22 12:50:00,82.9,82.0,30.13,SW,227,8.0,13.0,97,0.00,,---,0.00,VWS V14.00,2013-08-22 16:50:00,
2013-08-22 12:55:00,83.0,82.4,30.13,SW,224,10.0,13.0,98,0.00,,---,0.00,VWS V14.00,2013-08-22 16:55:00,
2013-08-22 13:00:00,83.0,82.1,30.13,SW,233,7.0,9.0,97,0.00,,---,0.00,VWS V14.00,2013-08-22 17:00:00,
2013-08-22 13:05:00,83.0,82.1,30.13,SW,236,9.0,13.0,97,0.00,,---,0.00,VWS V14.00,2013-08-22 17:05:00,
2013-08-22 13:10:00,83.0,82.4,30.13,SW,219,11.0,13.0,98,0.00,,---,0.00,VWS V14.00,2013-08-22 17:10:00,
2013-08-22 13:15:00,82.9,82.3,30.13,WSW,249,10.0,13.0,98,0.00,,---,0.00,VWS V14.00,2013-08-22 17:15:00,
2013-08-22 13:20:00,82.8,81.9,30.13,WSW,241,10.0,13.0,97,0.00,,---,0.00,VWS V14.00,2013-08-22 17:20:00,
2013-08-22 13:25:00,82.7,82.4,30.12,WSW,237,7.0,13.0,99,0.00,,---,0.00,VWS V14.00,2013-08-22 17:25:00,
2013-08-22 13:30:00,82.6,82.0,30.12,SW,232,8.0,9.0,98,0.00,,---,0.00,VWS V14.00,2013-08-22 17:30:00,
2013-08-22 13:35:00,82.7,81.8,30.12,SW,222,8.0,11.0,97,0.00,,---,0.00,VWS V14.00,2013-08-22 17:35:00,
2013-08-22 13:40:00,82.6,82.0,30.12,SW,227,8.0,13.0,98,0.00,,---,0.00,VWS V14.00,2013-08-22 17:40:00,
2013-08-22 13:45:00,82.5,81.9,30.12,SW,223,9.0,13.0,98,0.00,,---,0.00,VWS V14.00,2013-08-22 17:45:00,
2013-08-22 13:50:00,82.4,81.8,30.12,SW,236,9.0,13.0,98,0.00,,---,0.00,VWS V14.00,2013-08-22 17:50:00,
2013-08-22 13:55:00,82.4,82.1,30.12,SW,223,9.0,13.0,99,0.00,,---,0.00,VWS V14.00,2013-08-22 17:55:00,
2013-08-22 14:00:00,82.4,82.1,30.11,SW,231,12.0,12.0,99,0.00,,---,0.00,VWS V14.00,2013-08-22 18:00:00,
2013-08-22 14:05:00,82.4,82.1,30.11,WSW,247,8.0,12.0,99,0.00,,---,0.00,VWS V14.00,2013-08-22 18:05:00,
2013-08-22 14:10:00,82.3,82.0,30.11,SW,225,10.0,13.0,99,0.00,,---,0.00,VWS V14.00,2013-08-22 18:10:00,
2013-08-22 14:15:00,82.4,82.4,30.11,WSW,245,7.0,13.0,100,0.00,,---,0.00,VWS V14.00,2013-08-22 18:15:00,
2013-08-22 14:20:00,82.3,82.3,30.10,SW,226,11.0,13.0,100,0.00,,---,0.00,VWS V14.00,2013-08-22 18:20:00,
2013-08-22 14:25:00,82.2,82.2,30.10,SW,220,6.0,13.0,100,0.00,,---,0.00,VWS V14.00,2013-08-22 18:25:00,
2013-08-22 14:30:00,82.3,82.3,30.10,WSW,239,10.0,10.0,100,0.00,,---,0.00,VWS V14.00,2013-08-22 18:30:00,
2013-08-22 14:35:00,82.2,82.2,30.10,WSW,242,12.0,12.0,100,0.00,,---,0.00,VWS V14.00,2013-08-22 18:35:00,
2013-08-22 14:40:00,82.1,82.1,30.09,WSW,237,8.0,13.0,100,0.00,,---,0.00,VWS V14.00,2013-08-22 18:40:00,
2013-08-22 14:45:00,82.0,82.0,30.09,WSW,248,9.0,13.0,100,0.00,,---,0.00,VWS V14.00,2013-08-22 18:45:00,
2013-08-22 14:50:00,81.9,81.9,30.09,WSW,240,10.0,13.0,100,0.00,,---,0.00,VWS V14.00,2013-08-22 18:50:00,
2013-08-22 14:55:00,81.9,81.9,30.09,WSW,248,7.0,13.0,100,0.00,,---,0.00,VWS V14.00,2013-08-22 18:55:00,
2013-08-22 15:00:00,81.8,81.8,30.09,West,260,8.0,9.0,100,0.00,,---,0.00,VWS V14.00,2013-08-22 19:00:00,
2013-08-22 15:05:00,81.8,81.8,30.08,WSW,254,5.0,10.0,100,0.00,,---,0.00,VWS V14.00,2013-08-22 19:05:00,
2013-08-22 15:10:00,81.8,81.8,30.09,West,260,8.0,10.0,100,0.00,,---,0.00,VWS V14.00,2013-08-22 19:10:00,
2013-08-22 15:15:00,81.7,81.7,30.08,SW,233,7.0,13.0,100,0.00,,---,0.00,VWS V14.00,2013-08-22 19:15:00,
2013-08-22 15:20:00,81.8,81.8,30.08,WSW,242,8.0,13.0,100,0.00,,---,0.00,VWS V14.00,2013-08-22 19:20:00,
2013-08-22 15:25:00,81.8,81.8,30.08,WSW,243,8.0,14.0,100,0.00,,---,0.00,VWS V14.00,2013-08-22 19:25:00,
2013-08-22 15:30:00,82.0,82.0,30.08,SW,221,8.0,10.0,100,0.00,,---,0.00,VWS V14.00,2013-08-22 19:30:00,
2013-08-22 15:35:00,82.3,82.3,30.07,WSW,246,7.0,14.0,100,0.00,,---,0.00,VWS V14.00,2013-08-22 19:35:00,
2013-08-22 15:40:00,82.4,82.4,30.07,SW,221,10.0,14.0,100,0.00,,---,0.00,VWS V14.00,2013-08-22 19:40:00,
2013-08-22 15:45:00,82.6,82.6,30.07,SW,231,10.0,14.0,100,0.00,,---,0.00,VWS V14.00,2013-08-22 19:45:00,
2013-08-22 15:50:00,82.9,82.9,30.07,SW,232,12.0,15.0,100,0.00,,---,0.00,VWS V14.00,2013-08-22 19:50:00,
2013-08-22 15:55:00,82.9,82.6,30.06,WSW,237,11.0,15.0,99,0.00,,---,0.00,VWS V14.00,2013-08-22 19:55:00,
2013-08-22 16:00:00,82.7,82.4,30.06,SW,229,10.0,10.0,99,0.00,,---,0.00,VWS V14.00,2013-08-22 20:00:00,
2013-08-22 16:05:00,82.4,82.1,30.06,SW,230,8.0,12.0,99,0.00,,---,0.00,VWS V14.00,2013-08-22 20:05:00,
2013-08-22 16:10:00,82.2,81.9,30.06,SW,231,9.0,12.0,99,0.00,,---,0.00,VWS V14.00,2013-08-22 20:10:00,
2013-08-22 16:15:00,82.1,82.1,30.06,WSW,251,5.0,12.0,100,0.00,,---,0.00,VWS V14.00,2013-08-22 20:15:00,
2013-08-22 16:20:00,82.1,82.1,30.05,SW,227,11.0,12.0,100,0.00,,---,0.00,VWS V14.00,2013-08-22 20:20:00,
2013-08-22 16:25:00,81.9,81.9,30.05,SW,234,9.0,12.0,100,0.00,,---,0.00,VWS V14.00,2013-08-22 20:25:00,
2013-08-22 16:30:00,81.9,81.9,30.06,WSW,246,7.0,8.0,100,0.00,,---,0.00,VWS V14.00,2013-08-22 20:30:00,
2013-08-22 16:35:00,81.8,81.8,30.06,SW,234,8.0,9.0,100,0.00,,---,0.00,VWS V14.00,2013-08-22 20:35:00,
2013-08-22 16:40:00,81.8,81.8,30.06,WSW,246,9.0,10.0,100,0.00,,---,0.00,VWS V14.00,2013-08-22 20:40:00,
2013-08-22 16:45:00,81.9,81.9,30.06,WSW,238,9.0,12.0,100,0.00,,---,0.00,VWS V14.00,2013-08-22 20:45:00,
2013-08-22 16:50:00,82.3,82.3,30.06,WSW,239,8.0,13.0,100,0.00,,---,0.00,VWS V14.00,2013-08-22 20:50:00,
2013-08-22 16:55:00,82.6,82.6,30.06,WSW,239,5.0,13.0,100,0.00,,---,0.00,VWS V14.00,2013-08-22 20:55:00,
2013-08-22 17:00:00,83.1,82.8,30.06,SW,231,7.0,7.0,99,0.00,,---,0.00,VWS V14.00,2013-08-22 21:00:00,
2013-08-22 17:05:00,83.4,82.5,30.06,SW,227,8.0,12.0,97,0.00,,---,0.00,VWS V14.00,2013-08-22 21:05:00,
2013-08-22 17:10:00,83.3,82.0,30.06,SW,235,7.0,12.0,96,0.00,,---,0.00,VWS V14.00,2013-08-22 21:10:00,
2013-08-22 17:15:00,83.0,81.8,30.05,WSW,237,12.0,13.0,96,0.00,,---,0.00,VWS V14.00,2013-08-22 21:15:00,
2013-08-22 17:20:00,82.9,82.0,30.05,WSW,243,8.0,13.0,97,0.00,,---,0.00,VWS V14.00,2013-08-22 21:20:00,
2013-08-22 17:25:00,83.1,82.5,30.05,SW,236,11.0,13.0,98,0.00,,---,0.00,VWS V14.00,2013-08-22 21:25:00,
2013-08-22 17:30:00,83.1,81.8,30.05,SW,229,11.0,12.0,96,0.00,,---,0.00,VWS V14.00,2013-08-22 21:30:00,
2013-08-22 17:35:00,83.1,82.5,30.05,SW,235,6.0,13.0,98,0.00,,---,0.00,VWS V14.00,2013-08-22 21:35:00,
2013-08-22 17:40:00,83.2,82.3,30.05,SW,227,10.0,13.0,97,0.00,,---,0.00,VWS V14.00,2013-08-22 21:40:00,
2013-08-22 17:45:00,83.0,82.1,30.05,WSW,242,7.0,14.0,97,0.00,,---,0.00,VWS V14.00,2013-08-22 21:45:00,
2013-08-22 17:50:00,82.8,81.9,30.05,SW,228,11.0,14.0,97,0.00,,---,0.00,VWS V14.00,2013-08-22 21:50:00,
2013-08-22 17:55:00,82.6,81.7,30.06,SW,233,11.0,15.0,97,0.00,,---,0.00,VWS V14.00,2013-08-22 21:55:00,
2013-08-22 17:59:00,82.3,81.7,30.05,SW,236,10.0,15.0,98,0.00,,---,0.00,VWS V14.00,2013-08-22 21:59:00,
2013-08-22 18:00:00,82.3,81.7,30.05,WSW,238,9.0,15.0,98,0.00,,---,0.00,VWS V14.00,2013-08-22 22:00:00,
2013-08-22 18:04:00,82.1,81.5,30.06,SW,231,10.0,15.0,98,0.00,,---,0.00,VWS V14.00,2013-08-22 22:04:00,
2013-08-22 18:09:00,81.9,81.9,30.05,SW,233,8.0,17.0,100,0.00,,---,0.00,VWS V14.00,2013-08-22 22:09:00,
2013-08-22 18:14:00,81.7,81.7,30.05,SW,223,10.0,17.0,100,0.00,,---,0.00,VWS V14.00,2013-08-22 22:14:00,
2013-08-22 18:19:00,81.6,81.6,30.05,SW,224,7.0,17.0,100,0.00,,---,0.00,VWS V14.00,2013-08-22 22:19:00,
2013-08-22 18:24:00,81.5,81.5,30.05,SW,234,10.0,17.0,100,0.00,,---,0.00,VWS V14.00,2013-08-22 22:24:00,
2013-08-22 18:29:00,81.4,81.4,30.05,SW,226,11.0,17.0,100,0.00,,---,0.00,VWS V14.00,2013-08-22 22:29:00,
2013-08-22 18:30:00,81.4,81.4,30.05,SW,226,10.0,17.0,100,0.00,,---,0.00,VWS V14.00,2013-08-22 22:30:00,
2013-08-22 18:34:00,81.4,81.4,30.06,SW,231,9.0,17.0,100,0.00,,---,0.00,VWS V14.00,2013-08-22 22:34:00,
2013-08-22 18:39:00,81.3,81.3,30.05,SW,233,11.0,17.0,100,0.00,,---,0.00,VWS V14.00,2013-08-22 22:39:00,
2013-08-22 18:44:00,81.1,81.1,30.05,SW,234,9.0,17.0,100,0.00,,---,0.00,VWS V14.00,2013-08-22 22:44:00,
2013-08-22 18:49:00,81.0,81.0,30.05,SW,236,10.0,17.0,100,0.00,,---,0.00,VWS V14.00,2013-08-22 22:49:00,
2013-08-22 18:54:00,81.0,81.0,30.05,WSW,248,6.0,17.0,100,0.00,,---,0.00,VWS V14.00,2013-08-22 22:54:00,
2013-08-22 18:59:00,81.0,81.0,30.04,SW,230,12.0,17.0,100,0.00,,---,0.00,VWS V14.00,2013-08-22 22:59:00,
2013-08-22 19:00:00,81.0,81.0,30.04,SW,227,14.0,17.0,100,0.00,,---,0.00,VWS V14.00,2013-08-22 23:00:00,
2013-08-22 19:04:00,80.9,80.9,30.04,WSW,253,8.0,14.0,100,0.00,,---,0.00,VWS V14.00,2013-08-22 23:04:00,
2013-08-22 19:09:00,80.8,80.8,30.04,WSW,251,5.0,14.0,100,0.00,,---,0.00,VWS V14.00,2013-08-22 23:09:00,
2013-08-22 19:14:00,80.7,80.7,30.05,WSW,258,9.0,14.0,100,0.00,,---,0.00,VWS V14.00,2013-08-22 23:14:00,
2013-08-22 19:19:00,80.7,80.7,30.05,West,264,7.0,14.0,100,0.00,,---,0.00,VWS V14.00,2013-08-22 23:19:00,
2013-08-22 19:24:00,80.8,80.8,30.05,West,269,9.0,14.0,100,0.00,,---,0.00,VWS V14.00,2013-08-22 23:24:00,
2013-08-22 19:29:00,80.8,80.8,30.05,West,260,10.0,14.0,100,0.00,,---,0.00,VWS V14.00,2013-08-22 23:29:00,
2013-08-22 19:30:00,80.8,80.8,30.05,West,259,9.0,14.0,100,0.00,,---,0.00,VWS V14.00,2013-08-22 23:30:00,
2013-08-22 19:34:00,80.8,80.8,30.05,WSW,242,8.0,11.0,100,0.00,,---,0.00,VWS V14.00,2013-08-22 23:34:00,
2013-08-22 19:39:00,80.8,80.8,30.05,WSW,248,10.0,13.0,100,0.00,,---,0.00,VWS V14.00,2013-08-22 23:39:00,
2013-08-22 19:44:00,80.7,80.7,30.05,SW,236,8.0,14.0,100,0.00,,---,0.00,VWS V14.00,2013-08-22 23:44:00,
2013-08-22 19:49:00,80.7,80.7,30.04,SW,228,13.0,14.0,100,0.00,,---,0.00,VWS V14.00,2013-08-22 23:49:00,
2013-08-22 19:54:00,80.6,80.6,30.05,SW,235,9.0,15.0,100,0.00,,---,0.00,VWS V14.00,2013-08-22 23:54:00,
2013-08-22 19:59:00,80.6,80.6,30.05,WSW,243,9.0,16.0,100,0.00,,---,0.00,VWS V14.00,2013-08-22 23:59:00,
2013-08-22 20:00:00,80.6,80.6,30.05,WSW,243,10.0,16.0,100,0.00,,---,0.00,VWS V14.00,2013-08-23 00:00:00,
2013-08-22 20:04:00,80.6,80.6,30.05,WSW,244,10.0,12.0,100,0.00,,---,0.00,VWS V14.00,2013-08-23 00:04:00,
2013-08-22 20:09:00,80.6,80.6,30.06,WSW,247,12.0,14.0,100,0.00,,---,0.00,VWS V14.00,2013-08-23 00:09:00,
2013-08-22 20:14:00,80.6,80.6,30.06,WSW,250,9.0,15.0,100,0.00,,---,0.00,VWS V14.00,2013-08-23 00:14:00,
2013-08-22 20:19:00,80.5,80.5,30.06,WSW,240,14.0,17.0,100,0.00,,---,0.00,VWS V14.00,2013-08-23 00:19:00,
2013-08-22 20:24:00,80.4,80.4,30.06,WSW,246,13.0,18.0,100,0.00,,---,0.00,VWS V14.00,2013-08-23 00:24:00,
2013-08-22 20:29:00,80.3,80.3,30.06,WSW,253,10.0,18.0,100,0.00,,---,0.00,VWS V14.00,2013-08-23 00:29:00,
2013-08-22 20:30:00,80.3,80.3,30.06,WSW,257,10.0,18.0,100,0.00,,---,0.00,VWS V14.00,2013-08-23 00:30:00,
2013-08-22 20:34:00,80.4,80.4,30.07,West,267,5.0,13.0,100,0.00,,---,0.00,VWS V14.00,2013-08-23 00:34:00,
2013-08-22 20:39:00,80.2,80.2,30.06,West,262,10.0,13.0,100,0.00,,---,0.00,VWS V14.00,2013-08-23 00:39:00,
2013-08-22 20:44:00,80.1,80.1,30.07,WSW,258,8.0,14.0,100,0.00,,---,0.00,VWS V14.00,2013-08-23 00:44:00,
2013-08-22 20:53:00,80.1,80.1,30.06,WSW,251,11.0,11.0,100,0.00,,---,0.00,VWS V14.00,2013-08-23 00:53:00,
2013-08-22 20:58:00,80.0,80.0,30.06,WSW,245,10.0,16.0,100,0.00,,---,0.00,VWS V14.00,2013-08-23 00:58:00,
2013-08-22 21:00:00,80.2,80.2,30.06,WSW,248,10.0,16.0,100,0.00,,---,0.00,VWS V14.01,2013-08-23 01:00:00,
2013-08-22 21:03:00,79.9,79.9,30.06,WSW,257,10.0,13.0,100,0.00,,---,0.00,VWS V14.00,2013-08-23 01:03:00,
2013-08-22 21:08:00,79.8,79.8,30.06,WSW,258,7.0,15.0,100,0.00,,---,0.00,VWS V14.00,2013-08-23 01:08:00,
2013-08-22 21:13:00,79.8,79.8,30.06,West,267,9.0,15.0,100,0.00,,---,0.00,VWS V14.00,2013-08-23 01:13:00,
2013-08-22 21:18:00,79.9,79.9,30.06,West,260,9.0,16.0,100,0.00,,---,0.00,VWS V14.00,2013-08-23 01:18:00,
2013-08-22 21:23:00,79.8,79.8,30.06,West,273,10.0,16.0,100,0.00,,---,0.00,VWS V14.00,2013-08-23 01:23:00,
2013-08-22 21:28:00,79.8,79.8,30.07,West,268,8.0,17.0,100,0.00,,---,0.00,VWS V14.00,2013-08-23 01:28:00,
2013-08-22 21:30:00,79.8,79.5,30.07,West,270,11.0,17.0,99,0.00,,---,0.00,VWS V14.01,2013-08-23 01:30:00,
2013-08-22 21:33:00,79.6,78.7,30.06,West,261,12.0,14.0,97,0.00,,---,0.00,VWS V14.00,2013-08-23 01:33:00,
2013-08-22 21:38:00,79.4,77.8,30.06,WSW,256,11.0,16.0,95,0.00,,---,0.00,VWS V14.00,2013-08-23 01:38:00,
2013-08-22 21:43:00,79.2,77.3,30.07,WSW,257,10.0,16.0,94,0.00,,---,0.00,VWS V14.00,2013-08-23 01:43:00,
2013-08-22 21:48:00,79.1,77.6,30.07,West,262,10.0,16.0,95,0.00,,---,0.00,VWS V14.00,2013-08-23 01:48:00,
2013-08-22 21:53:00,79.1,78.5,30.07,West,270,7.0,16.0,98,0.00,,---,0.00,VWS V14.00,2013-08-23 01:53:00,
2013-08-22 21:58:00,79.0,78.1,30.07,West,268,7.0,16.0,97,0.00,,---,0.00,VWS V14.00,2013-08-23 01:58:00,
2013-08-22 22:00:00,79.2,77.7,30.07,West,270,10.0,16.0,95,0.00,,---,0.00,VWS V14.01,2013-08-23 02:00:00,
2013-08-22 22:03:00,78.8,77.9,30.07,West,273,8.0,10.0,97,0.00,,---,0.00,VWS V14.00,2013-08-23 02:03:00,
2013-08-22 22:08:00,78.7,77.2,30.06,West,272,8.0,10.0,95,0.00,,---,0.00,VWS V14.00,2013-08-23 02:08:00,
2013-08-22 22:13:00,78.6,77.4,30.06,West,277,9.0,10.0,96,0.00,,---,0.00,VWS V14.00,2013-08-23 02:13:00,
2013-08-22 22:18:00,78.6,77.4,30.06,West,274,7.0,10.0,96,0.00,,---,0.00,VWS V14.00,2013-08-23 02:18:00,
2013-08-22 22:23:00,78.5,76.9,30.06,West,267,6.0,11.0,95,0.00,,---,0.00,VWS V14.00,2013-08-23 02:23:00,
2013-08-22 22:28:00,78.5,77.3,30.06,West,266,7.0,11.0,96,0.00,,---,0.00,VWS V14.00,2013-08-23 02:28:00,
2013-08-22 22:30:00,78.7,77.5,30.06,West,270,8.0,11.0,96,0.00,,---,0.00,VWS V14.01,2013-08-23 02:30:00,
2013-08-22 22:33:00,78.5,77.3,30.06,West,269,9.0,10.0,96,0.00,,---,0.00,VWS V14.00,2013-08-23 02:33:00,
2013-08-22 22:38:00,78.4,77.5,30.06,West,271,7.0,10.0,97,0.00,,---,0.00,VWS V14.00,2013-08-23 02:38:00,
2013-08-22 22:43:00,78.4,77.5,30.06,West,268,9.0,10.0,97,0.00,,---,0.00,VWS V14.00,2013-08-23 02:43:00,
2013-08-22 22:48:00,78.4,77.8,30.06,West,277,6.0,10.0,98,0.00,,---,0.00,VWS V14.00,2013-08-23 02:48:00,
2013-08-22 22:53:00,78.4,77.8,30.06,West,263,6.0,10.0,98,0.00,,---,0.00,VWS V14.00,2013-08-23 02:53:00,
2013-08-22 22:58:00,78.3,77.7,30.06,WSW,242,5.0,10.0,98,0.00,,---,0.00,VWS V14.00,2013-08-23 02:58:00,
2013-08-22 23:00:00,78.4,77.8,30.06,West,270,6.0,10.0,98,0.00,,---,0.00,VWS V14.01,2013-08-23 03:00:00,
2013-08-22 23:03:00,78.1,77.5,30.06,West,265,9.0,9.0,98,0.00,,---,0.00,VWS V14.00,2013-08-23 03:03:00,
2013-08-22 23:08:00,78.1,77.5,30.06,West,268,11.0,11.0,98,0.00,,---,0.00,VWS V14.00,2013-08-23 03:08:00,
2013-08-22 23:13:00,78.1,77.5,30.07,West,270,6.0,11.0,98,0.00,,---,0.00,VWS V14.00,2013-08-23 03:13:00,
2013-08-22 23:18:00,78.1,77.5,30.06,West,280,5.0,11.0,98,0.00,,---,0.00,VWS V14.00,2013-08-23 03:18:00,
2013-08-22 23:23:00,78.1,77.8,30.06,West,270,7.0,11.0,99,0.00,,---,0.00,VWS V14.00,2013-08-23 03:23:00,
2013-08-22 23:28:00,78.1,77.8,30.07,West,278,6.0,11.0,99,0.00,,---,0.00,VWS V14.00,2013-08-23 03:28:00,
2013-08-22 23:30:00,78.1,77.8,30.07,West,270,7.0,11.0,99,0.00,,---,0.00,VWS V14.01,2013-08-23 03:30:00,
2013-08-22 23:33:00,78.1,77.8,30.06,West,273,8.0,10.0,99,0.00,,---,0.00,VWS V14.00,2013-08-23 03:33:00,
2013-08-22 23:38:00,78.0,77.7,30.07,West,274,8.0,11.0,99,0.00,,---,0.00,VWS V14.00,2013-08-23 03:38:00,
2013-08-22 23:43:00,78.1,77.8,30.06,West,278,6.0,11.0,99,0.00,,---,0.00,VWS V14.00,2013-08-23 03:43:00,
2013-08-22 23:48:00,78.1,78.1,30.06,West,272,8.0,11.0,100,0.00,,---,0.00,VWS V14.00,2013-08-23 03:48:00,
2013-08-22 23:53:00,78.1,77.8,30.06,West,266,9.0,11.0,99,0.00,,---,0.00,VWS V14.00,2013-08-23 03:53:00,
2013-08-22 23:58:00,78.1,77.8,30.06,West,264,7.0,11.0,99,0.00,,---,0.00,VWS V14.00,2013-08-23 03:58:00,